Location: Fort Worth, Tx
(32.7431°N, 97.3695°W)
Time: 04:56:34
(UTC-05:00)

A-11 Canister half - Visible Passes

Search period start: 23 February 2024 00:00
Search period end: 04 March 2024 00:00
Orbit: 1526 x 1682 km, 47.3° (Epoch: 22 February)

Date Brightness Start Highest point End Pass type
(mag) Time Alt. Az. Time Alt. Az. Time Alt. Az.
23 Feb 9.2 04:45:18 61° ENE 04:45:18 61° ENE 04:53:25 10° ESE visible
23 Feb 9.4 06:43:38 23° WNW 06:48:41 40° SW 06:57:21 10° SSE visible
23 Feb 10.0 19:51:04 10° S 19:58:24 25° SE 20:05:09 11° ENE visible
23 Feb 8.8 21:52:57 10° SW 22:02:36 89° SE 22:03:30 77° NE visible
23 Feb 10.9 23:59:45 10° W 00:01:52 18° WNW 00:01:52 18° WNW visible
24 Feb 9.7 04:25:21 44° E 04:25:21 44° E 04:31:35 10° ESE visible
24 Feb 9.3 06:23:41 33° W 06:26:59 43° SW 06:35:45 10° SSE visible
24 Feb 8.8 21:31:12 10° SW 21:40:52 86° SE 21:43:43 52° ENE visible
24 Feb 10.5 23:37:51 10° W 23:42:04 26° WNW 23:42:04 26° WNW visible
25 Feb 10.2 04:05:29 30° E 04:05:29 30° E 04:09:46 10° ESE visible
25 Feb 9.1 06:03:50 43° WSW 06:05:18 46° SW 06:14:09 10° SSE visible
25 Feb 8.9 21:09:27 10° SW 21:19:08 82° SE 21:23:51 35° ENE visible
25 Feb 10.0 23:15:57 10° W 23:22:12 36° NW 23:22:12 36° NW visible
26 Feb 10.7 03:45:41 19° ESE 03:45:41 19° ESE 03:47:57 10° ESE visible
26 Feb 9.1 05:44:03 48° SW 05:44:03 48° SW 05:52:33 10° SSE visible
26 Feb 8.9 20:47:42 10° SW 20:57:24 78° SE 21:03:56 23° ENE visible
26 Feb 9.7 22:54:04 10° W 23:02:16 43° NNW 23:02:16 43° NNW visible
27 Feb 11.1 03:25:57 11° ESE 03:25:57 11° ESE 03:26:07 10° ESE visible
27 Feb 9.4 05:24:19 43° S 05:24:19 43° S 05:30:55 10° SSE visible
27 Feb 9.0 20:25:59 10° SW 20:35:40 75° SE 20:43:55 15° NE visible
27 Feb 9.6 22:32:10 10° W 22:41:13 45° NNW 22:42:15 44° N visible
28 Feb 11.2 00:40:06 10° WNW 00:40:34 11° WNW 00:40:34 11° WNW visible
28 Feb 9.9 05:04:37 32° SSE 05:04:37 32° SSE 05:09:17 10° SSE visible
28 Feb 9.0 20:04:15 10° SW 20:13:56 71° SE 20:23:19 10° NE visible
28 Feb 9.6 22:10:17 10° W 22:19:24 46° NNW 22:22:09 38° NNE visible
29 Feb 10.9 00:18:15 10° WNW 00:20:28 17° NW 00:20:28 17° NW visible
29 Feb 10.4 04:44:56 21° SSE 04:44:56 21° SSE 04:47:38 10° SSE visible
29 Feb 10.5 06:43:18 11° SW 06:43:18 11° SW 06:44:37 10° SW visible
29 Feb 9.1 19:42:33 10° SW 19:52:12 68° SE 20:01:34 10° ENE visible
29 Feb 9.6 21:48:24 10° W 21:57:36 48° NNW 22:01:58 30° NNE visible
29 Feb 10.6 23:56:23 10° WNW 00:00:16 23° NW 00:00:16 23° NW visible
01 Mar 10.9 04:25:15 13° SSE 04:25:15 13° SSE 04:25:59 10° SSE visible
01 Mar 10.6 06:23:37 10° SW 06:23:37 10° SW 06:23:58 10° SW visible
01 Mar 9.6 21:26:31 10° W 21:35:48 50° NNW 21:41:42 23° NE visible
01 Mar 10.4 23:34:31 10° WNW 23:40:01 28° NNW 23:40:01 28° NNW visible
02 Mar 9.6 21:04:38 10° WSW 21:14:00 51° NNW 21:21:23 17° NE visible
02 Mar 10.1 23:12:39 10° WNW 23:19:42 32° NNW 23:19:42 32° NNW visible
03 Mar 9.6 20:42:45 10° WSW 20:52:12 53° NNW 21:01:01 11° NE visible
03 Mar 10.0 22:50:45 10° WNW 22:59:06 33° N 22:59:19 33° N visible
